Location: T�bingen+AIT
(48.5342°N, 9.0700°E)
Time: 22:37:34
(UTC+01:00)

Helios 1B rocket - Pass Details

Date: 14 September 2017
Orbit: 576 x 586 km, 98.2° (Epoch: 19 November)

Event Time Altitude Azimuth Distance (km) Brightness Sun altitude
Rises 22:33:12 0° 9° (N) 2,818 6.4 -27.1°
Reaches altitude 10° 22:35:24 10° 4° (N) 1,915 5.5 -27.3°
Enters shadow 22:39:05 47° 306° (NW) 781 3.4 -27.8°
